Time,TemperatureF,DewpointF,PressureIn,WindDirection,WindDirectionDegrees,WindSpeedMPH,WindSpeedGustMPH,Humidity,HourlyPrecipIn,Conditions,Clouds,dailyrainin,SoftwareType,DateUTC
2013-03-31 00:00:00,53.7,43.8,30.09,ESE,104,0.0,0.0,69,0.00,,---,0.00,VWS V14.01,2013-03-31 07:00:00,
2013-03-31 00:05:00,53.6,43.7,30.09,North,351,0.0,0.0,69,0.00,,---,0.00,VWS V14.01,2013-03-31 07:05:00,
2013-03-31 00:10:00,53.6,43.7,30.09,North,360,0.0,0.0,69,0.00,,---,0.00,VWS V14.01,2013-03-31 07:10:00,
2013-03-31 00:15:00,53.6,43.7,30.09,West,269,0.0,0.0,69,0.00,,---,0.00,VWS V14.01,2013-03-31 07:15:00,
2013-03-31 00:20:00,53.6,43.3,30.09,NNW,334,0.0,0.0,68,0.00,,---,0.00,VWS V14.01,2013-03-31 07:20:00,
2013-03-31 00:25:00,53.6,43.3,30.09,NNE,21,0.0,0.0,68,0.00,,---,0.00,VWS V14.01,2013-03-31 07:25:00,
2013-03-31 00:30:00,53.6,43.3,30.09,NW,323,0.0,0.0,68,0.00,,---,0.00,VWS V14.01,2013-03-31 07:30:00,
2013-03-31 00:35:00,53.6,43.3,30.09,NW,311,0.0,0.0,68,0.00,,---,0.00,VWS V14.01,2013-03-31 07:35:00,
2013-03-31 00:40:00,53.5,43.2,30.09,West,275,0.0,0.0,68,0.00,,---,0.00,VWS V14.01,2013-03-31 07:40:00,
2013-03-31 00:45:00,53.4,43.1,30.09,West,269,0.0,0.0,68,0.00,,---,0.00,VWS V14.01,2013-03-31 07:45:00,
2013-03-31 00:50:00,53.2,43.3,30.09,NNE,12,0.0,0.0,69,0.00,,---,0.00,VWS V14.01,2013-03-31 07:50:00,
2013-03-31 00:55:00,53.0,43.5,30.09,NW,310,0.0,0.0,70,0.00,,---,0.00,VWS V14.01,2013-03-31 07:55:00,
2013-03-31 01:00:00,52.8,43.7,30.09,NE,40,0.0,0.0,71,0.00,,---,0.00,VWS V14.01,2013-03-31 08:00:00,
2013-03-31 01:05:00,52.6,43.1,30.09,NNE,27,0.0,0.0,70,0.00,,---,0.00,VWS V14.01,2013-03-31 08:05:00,
2013-03-31 01:10:00,52.5,43.4,30.09,WNW,286,0.0,0.0,71,0.00,,---,0.00,VWS V14.01,2013-03-31 08:10:00,
2013-03-31 01:15:00,52.3,43.2,30.09,WNW,295,0.0,0.0,71,0.00,,---,0.00,VWS V14.01,2013-03-31 08:15:00,
2013-03-31 01:20:00,51.9,43.2,30.09,WNW,295,0.0,0.0,72,0.00,,---,0.00,VWS V14.01,2013-03-31 08:20:00,
2013-03-31 01:25:00,51.9,43.2,30.09,North,5,0.0,0.0,72,0.00,,---,0.00,VWS V14.01,2013-03-31 08:25:00,
2013-03-31 01:30:00,51.8,43.1,30.09,NNE,15,0.0,0.0,72,0.00,,---,0.00,VWS V14.01,2013-03-31 08:30:00,
2013-03-31 01:35:00,51.8,43.1,30.08,NW,316,0.0,0.0,72,0.00,,---,0.00,VWS V14.01,2013-03-31 08:35:00,
2013-03-31 01:40:00,51.9,43.2,30.08,NW,312,0.0,0.0,72,0.00,,---,0.00,VWS V14.01,2013-03-31 08:40:00,
2013-03-31 01:45:00,52.0,43.3,30.08,North,5,0.0,0.0,72,0.00,,---,0.00,VWS V14.01,2013-03-31 08:45:00,
2013-03-31 01:50:00,52.1,43.4,30.08,NNW,333,0.0,0.0,72,0.00,,---,0.00,VWS V14.01,2013-03-31 08:50:00,
2013-03-31 01:55:00,52.1,43.4,30.08,NNE,17,0.0,0.0,72,0.00,,---,0.00,VWS V14.01,2013-03-31 08:55:00,
2013-03-31 02:00:00,52.1,43.4,30.08,ENE,58,0.0,0.0,72,0.00,,---,0.00,VWS V14.01,2013-03-31 09:00:00,
2013-03-31 02:05:00,52.1,43.4,30.08,NE,34,0.0,0.0,72,0.00,,---,0.00,VWS V14.01,2013-03-31 09:05:00,
2013-03-31 02:10:00,52.0,43.3,30.08,NNE,15,0.0,0.0,72,0.00,,---,0.00,VWS V14.01,2013-03-31 09:10:00,
2013-03-31 02:15:00,52.1,43.0,30.08,NE,35,0.0,0.0,71,0.00,,---,0.00,VWS V14.01,2013-03-31 09:15:00,
2013-03-31 02:20:00,52.1,43.0,30.07,NNW,346,0.0,0.0,71,0.00,,---,0.00,VWS V14.01,2013-03-31 09:20:00,
2013-03-31 02:25:00,52.1,43.0,30.07,WNW,303,0.0,0.0,71,0.00,,---,0.00,VWS V14.01,2013-03-31 09:25:00,
2013-03-31 02:30:00,52.2,43.5,30.07,NW,322,0.0,0.0,72,0.00,,---,0.00,VWS V14.01,2013-03-31 09:30:00,
2013-03-31 02:35:00,52.1,43.0,30.07,SE,128,0.0,0.0,71,0.00,,---,0.00,VWS V14.01,2013-03-31 09:35:00,
2013-03-31 02:40:00,52.0,42.9,30.07,SE,138,0.0,0.0,71,0.00,,---,0.00,VWS V14.01,2013-03-31 09:40:00,
2013-03-31 02:45:00,51.9,42.8,30.07,North,355,0.0,0.0,71,0.00,,---,0.00,VWS V14.01,2013-03-31 09:45:00,
2013-03-31 02:50:00,51.8,42.7,30.06,NW,304,0.0,0.0,71,0.00,,---,0.00,VWS V14.01,2013-03-31 09:50:00,
2013-03-31 02:55:00,51.7,43.0,30.06,North,351,0.0,0.0,72,0.00,,---,0.00,VWS V14.01,2013-03-31 09:55:00,
2013-03-31 03:00:00,51.7,43.0,30.06,North,355,0.0,0.0,72,0.00,,---,0.00,VWS V14.01,2013-03-31 10:00:00,
2013-03-31 03:04:00,51.8,43.1,30.06,WNW,298,0.0,0.0,72,0.00,,---,0.00,VWS V14.01,2013-03-31 10:04:00,
2013-03-31 03:09:00,51.7,43.0,30.06,NE,54,0.0,0.0,72,0.00,,---,0.00,VWS V14.01,2013-03-31 10:09:00,
2013-03-31 03:14:00,51.6,42.9,30.06,North,5,0.0,0.0,72,0.00,,---,0.00,VWS V14.01,2013-03-31 10:14:00,
2013-03-31 03:15:00,51.6,42.9,30.06,WNW,302,0.0,0.0,72,0.00,,---,0.00,VWS V14.01,2013-03-31 10:15:00,
2013-03-31 03:19:00,51.5,43.1,30.06,NE,55,0.0,0.0,73,0.00,,---,0.00,VWS V14.01,2013-03-31 10:19:00,
2013-03-31 03:24:00,51.4,43.0,30.06,West,276,0.0,0.0,73,0.00,,---,0.00,VWS V14.01,2013-03-31 10:24:00,
2013-03-31 03:29:00,51.3,43.0,30.06,NNE,31,0.0,0.0,73,0.00,,---,0.00,VWS V14.01,2013-03-31 10:29:00,
2013-03-31 03:30:00,51.2,42.8,30.06,ENE,75,0.0,0.0,73,0.00,,---,0.00,VWS V14.01,2013-03-31 10:30:00,
2013-03-31 03:34:00,51.2,42.9,30.06,East,90,0.0,0.0,73,0.00,,---,0.00,VWS V14.01,2013-03-31 10:34:00,
2013-03-31 03:39:00,51.2,42.9,30.05,North,5,0.0,0.0,73,0.00,,---,0.00,VWS V14.01,2013-03-31 10:39:00,
2013-03-31 03:44:00,51.0,42.7,30.05,NNE,29,0.0,0.0,73,0.00,,---,0.00,VWS V14.01,2013-03-31 10:44:00,
2013-03-31 03:45:00,50.9,42.6,30.05,NE,41,0.0,0.0,73,0.00,,---,0.00,VWS V14.01,2013-03-31 10:45:00,
2013-03-31 03:49:00,50.9,42.6,30.05,WNW,292,0.0,0.0,73,0.00,,---,0.00,VWS V14.01,2013-03-31 10:49:00,
2013-03-31 03:54:00,50.7,42.4,30.05,North,5,0.0,0.0,73,0.00,,---,0.00,VWS V14.01,2013-03-31 10:54:00,
2013-03-31 03:59:00,50.6,42.6,30.05,North,355,0.0,0.0,74,0.00,,---,0.00,VWS V14.01,2013-03-31 10:59:00,
2013-03-31 04:00:00,50.5,42.5,30.05,NW,319,0.0,0.0,74,0.00,,---,0.00,VWS V14.01,2013-03-31 11:00:00,
2013-03-31 04:04:00,50.3,42.7,30.05,North,5,0.0,0.0,75,0.00,,---,0.00,VWS V14.01,2013-03-31 11:04:00,
2013-03-31 04:09:00,50.1,42.5,30.05,NW,310,0.0,0.0,75,0.00,,---,0.00,VWS V14.01,2013-03-31 11:09:00,
2013-03-31 04:14:00,50.0,42.7,30.05,North,355,0.0,0.0,76,0.00,,---,0.00,VWS V14.01,2013-03-31 11:14:00,
2013-03-31 04:15:00,50.0,42.7,30.05,NE,34,0.0,0.0,76,0.00,,---,0.00,VWS V14.01,2013-03-31 11:15:00,
2013-03-31 04:19:00,49.8,42.9,30.05,WSW,237,0.0,0.0,77,0.00,,---,0.00,VWS V14.01,2013-03-31 11:19:00,
2013-03-31 04:24:00,49.6,43.0,30.05,NNW,332,0.0,0.0,78,0.00,,---,0.00,VWS V14.01,2013-03-31 11:24:00,
2013-03-31 04:29:00,49.4,42.8,30.05,NNW,333,0.0,0.0,78,0.00,,---,0.00,VWS V14.01,2013-03-31 11:29:00,
2013-03-31 04:30:00,49.4,42.8,30.05,West,275,0.0,0.0,78,0.00,,---,0.00,VWS V14.01,2013-03-31 11:30:00,
2013-03-31 04:34:00,49.3,42.7,30.05,NE,49,0.0,0.0,78,0.00,,---,0.00,VWS V14.01,2013-03-31 11:34:00,
2013-03-31 04:39:00,49.3,42.7,30.05,NNE,15,0.0,0.0,78,0.00,,---,0.00,VWS V14.01,2013-03-31 11:39:00,
2013-03-31 04:44:00,49.3,43.1,30.05,North,11,0.0,0.0,79,0.00,,---,0.00,VWS V14.01,2013-03-31 11:44:00,
2013-03-31 04:45:00,49.3,43.1,30.05,NNE,14,0.0,0.0,79,0.00,,---,0.00,VWS V14.01,2013-03-31 11:45:00,
2013-03-31 04:49:00,49.3,43.1,30.05,NE,44,0.0,0.0,79,0.00,,---,0.00,VWS V14.01,2013-03-31 11:49:00,
2013-03-31 04:54:00,49.2,43.0,30.05,NNE,26,0.0,0.0,79,0.00,,---,0.00,VWS V14.01,2013-03-31 11:54:00,
2013-03-31 04:59:00,49.2,43.0,30.05,NNE,26,0.0,0.0,79,0.00,,---,0.00,VWS V14.01,2013-03-31 11:59:00,
2013-03-31 05:00:00,49.2,43.0,30.05,NNE,20,0.0,0.0,79,0.00,,---,0.00,VWS V14.01,2013-03-31 12:00:00,
2013-03-31 05:04:00,49.2,43.0,30.05,NNW,330,0.0,0.0,79,0.00,,---,0.00,VWS V14.01,2013-03-31 12:04:00,
2013-03-31 05:09:00,49.1,42.9,30.05,NNE,21,0.0,0.0,79,0.00,,---,0.00,VWS V14.01,2013-03-31 12:09:00,
2013-03-31 05:14:00,49.2,43.0,30.05,NNE,17,0.0,0.0,79,0.00,,---,0.00,VWS V14.01,2013-03-31 12:14:00,
2013-03-31 05:15:00,49.2,43.0,30.05,NNE,19,0.0,0.0,79,0.00,,---,0.00,VWS V14.01,2013-03-31 12:15:00,
2013-03-31 05:19:00,49.2,43.3,30.05,NNE,22,0.0,0.0,80,0.00,,---,0.00,VWS V14.01,2013-03-31 12:19:00,
2013-03-31 05:24:00,49.3,43.4,30.05,NNE,12,0.0,0.0,80,0.00,,---,0.00,VWS V14.01,2013-03-31 12:24:00,
2013-03-31 05:29:00,49.3,43.4,30.05,NE,41,0.0,0.0,80,0.00,,---,0.00,VWS V14.01,2013-03-31 12:29:00,
2013-03-31 05:30:00,49.3,43.4,30.05,NE,42,0.0,0.0,80,0.00,,---,0.00,VWS V14.01,2013-03-31 12:30:00,
2013-03-31 05:34:00,49.3,43.4,30.05,NE,49,0.0,0.0,80,0.00,,---,0.00,VWS V14.01,2013-03-31 12:34:00,
2013-03-31 05:39:00,49.4,43.2,30.05,NE,46,0.0,0.0,79,0.00,,---,0.00,VWS V14.01,2013-03-31 12:39:00,
2013-03-31 05:44:00,49.5,43.3,30.04,NE,41,0.0,0.0,79,0.00,,---,0.00,VWS V14.01,2013-03-31 12:44:00,
2013-03-31 05:45:00,49.5,43.3,30.04,NE,51,0.0,0.0,79,0.00,,---,0.00,VWS V14.01,2013-03-31 12:45:00,
2013-03-31 05:49:00,49.5,43.3,30.04,NE,51,0.0,0.0,79,0.00,,---,0.00,VWS V14.01,2013-03-31 12:49:00,
2013-03-31 05:54:00,49.6,43.4,30.05,NE,51,0.0,0.0,79,0.00,,---,0.00,VWS V14.01,2013-03-31 12:54:00,
2013-03-31 05:59:00,49.5,43.3,30.05,NE,51,0.0,0.0,79,0.00,,---,0.00,VWS V14.01,2013-03-31 12:59:00,
2013-03-31 06:00:00,49.5,43.3,30.05,NE,51,0.0,0.0,79,0.00,,---,0.00,VWS V14.01,2013-03-31 13:00:00,
2013-03-31 06:04:00,49.5,43.3,30.05,NE,51,0.0,0.0,79,0.00,,---,0.00,VWS V14.01,2013-03-31 13:04:00,
2013-03-31 06:09:00,49.4,43.2,30.05,NE,51,0.0,0.0,79,0.00,,---,0.00,VWS V14.01,2013-03-31 13:09:00,
2013-03-31 06:14:00,49.4,43.2,30.05,NE,51,0.0,0.0,79,0.00,,---,0.00,VWS V14.01,2013-03-31 13:14:00,
2013-03-31 06:15:00,49.4,43.2,30.05,NE,51,0.0,0.0,79,0.00,,---,0.00,VWS V14.01,2013-03-31 13:15:00,
2013-03-31 06:19:00,49.3,43.1,30.05,NE,51,0.0,0.0,79,0.00,,---,0.00,VWS V14.01,2013-03-31 13:19:00,
2013-03-31 06:24:00,49.2,43.3,30.05,ENE,69,0.0,0.0,80,0.00,,---,0.00,VWS V14.01,2013-03-31 13:24:00,
2013-03-31 06:29:00,49.1,43.2,30.05,ENE,75,0.0,0.0,80,0.00,,---,0.00,VWS V14.01,2013-03-31 13:29:00,
2013-03-31 06:30:00,49.1,43.2,30.05,ENE,75,0.0,0.0,80,0.00,,---,0.00,VWS V14.01,2013-03-31 13:30:00,
2013-03-31 06:34:00,49.1,42.9,30.05,ENE,75,0.0,0.0,79,0.00,,---,0.00,VWS V14.01,2013-03-31 13:34:00,
2013-03-31 06:39:00,49.1,43.2,30.05,NE,44,0.0,0.0,80,0.00,,---,0.00,VWS V14.01,2013-03-31 13:39:00,
2013-03-31 06:44:00,49.0,43.1,30.05,NE,51,0.0,0.0,80,0.00,,---,0.00,VWS V14.01,2013-03-31 13:44:00,
2013-03-31 06:45:00,49.0,43.1,30.05,NE,45,0.0,0.0,80,0.00,,---,0.00,VWS V14.01,2013-03-31 13:45:00,
2013-03-31 06:49:00,48.8,42.9,30.06,ENE,63,0.0,0.0,80,0.00,,---,0.00,VWS V14.01,2013-03-31 13:49:00,
2013-03-31 06:54:00,48.7,42.8,30.06,North,5,0.0,0.0,80,0.00,,---,0.00,VWS V14.01,2013-03-31 13:54:00,
2013-03-31 06:59:00,48.6,43.0,30.06,ENE,77,0.0,0.0,81,0.00,,---,0.00,VWS V14.01,2013-03-31 13:59:00,
2013-03-31 07:00:00,48.6,43.0,30.06,NNE,28,0.0,0.0,81,0.00,,---,0.00,VWS V14.01,2013-03-31 14:00:00,
2013-03-31 07:04:00,48.5,43.0,30.06,ENE,67,0.0,0.0,81,0.00,,---,0.00,VWS V14.01,2013-03-31 14:04:00,
2013-03-31 07:09:00,48.5,43.0,30.06,SE,131,0.0,0.0,81,0.00,,---,0.00,VWS V14.01,2013-03-31 14:09:00,
2013-03-31 07:14:00,48.5,43.0,30.06,North,355,0.0,0.0,81,0.00,,---,0.00,VWS V14.01,2013-03-31 14:14:00,
2013-03-31 07:15:00,48.4,43.2,30.06,North,11,0.0,0.0,82,0.00,,---,0.00,VWS V14.01,2013-03-31 14:15:00,
2013-03-31 07:19:00,48.5,43.3,30.06,NW,317,0.0,0.0,82,0.00,,---,0.00,VWS V14.01,2013-03-31 14:19:00,
2013-03-31 07:24:00,48.5,43.3,30.06,NNE,20,0.0,0.0,82,0.00,,---,0.00,VWS V14.01,2013-03-31 14:24:00,
2013-03-31 07:29:00,48.5,43.3,30.06,North,5,0.0,0.0,82,0.00,,---,0.00,VWS V14.01,2013-03-31 14:29:00,
2013-03-31 07:30:00,48.6,43.4,30.06,NE,35,0.0,0.0,82,0.00,,---,0.00,VWS V14.01,2013-03-31 14:30:00,
2013-03-31 07:34:00,48.7,43.5,30.06,South,176,0.0,0.0,82,0.00,,---,0.00,VWS V14.01,2013-03-31 14:34:00,
2013-03-31 07:39:00,48.9,43.0,30.06,NNE,32,0.0,0.0,80,0.00,,---,0.00,VWS V14.01,2013-03-31 14:39:00,
2013-03-31 07:44:00,49.4,43.2,30.06,WNW,296,0.0,0.0,79,0.00,,---,0.00,VWS V14.01,2013-03-31 14:44:00,
2013-03-31 07:45:00,49.4,42.8,30.06,SSE,150,0.0,0.0,78,0.00,,---,0.00,VWS V14.01,2013-03-31 14:45:00,
2013-03-31 07:49:00,49.5,42.9,30.06,North,355,0.0,0.0,78,0.00,,---,0.00,VWS V14.01,2013-03-31 14:49:00,
2013-03-31 07:54:00,49.9,43.3,30.06,NNE,23,0.0,0.0,78,0.00,,---,0.00,VWS V14.01,2013-03-31 14:54:00,
2013-03-31 07:59:00,50.0,43.1,30.06,SSE,158,0.0,0.0,77,0.00,,---,0.00,VWS V14.01,2013-03-31 14:59:00,
2013-03-31 08:04:00,50.2,42.9,30.06,NE,40,0.0,0.0,76,0.00,,---,0.00,VWS V14.01,2013-03-31 15:04:00,
2013-03-31 08:09:00,50.1,42.8,30.06,WNW,293,0.0,0.0,76,0.00,,---,0.00,VWS V14.01,2013-03-31 15:09:00,
2013-03-31 08:14:00,50.1,42.8,30.06,WNW,285,0.0,0.0,76,0.00,,---,0.00,VWS V14.01,2013-03-31 15:14:00,
2013-03-31 08:19:00,49.9,43.0,30.06,NNE,17,0.0,0.0,77,0.00,,---,0.00,VWS V14.01,2013-03-31 15:19:00,
2013-03-31 08:24:00,50.1,43.2,30.06,NNE,18,0.0,0.0,77,0.00,,---,0.00,VWS V14.01,2013-03-31 15:24:00,
2013-03-31 08:29:00,50.2,43.3,30.06,WNW,296,0.0,0.0,77,0.00,,---,0.00,VWS V14.01,2013-03-31 15:29:00,
2013-03-31 08:30:00,50.1,43.2,30.06,NNW,346,0.0,0.0,77,0.00,,---,0.00,VWS V14.01,2013-03-31 15:30:00,
2013-03-31 08:34:00,50.2,43.3,30.06,WSW,258,0.0,0.0,77,0.00,,---,0.00,VWS V14.01,2013-03-31 15:34:00,
2013-03-31 08:39:00,50.2,43.3,30.05,NNE,26,0.0,0.0,77,0.00,,---,0.00,VWS V14.01,2013-03-31 15:39:00,
2013-03-31 08:44:00,50.4,43.1,30.05,WNW,296,0.0,0.0,76,0.00,,---,0.00,VWS V14.01,2013-03-31 15:44:00,
2013-03-31 08:49:00,50.5,43.6,30.05,WSW,242,0.0,0.0,77,0.00,,---,0.00,VWS V14.01,2013-03-31 15:49:00,
2013-03-31 08:54:00,50.8,43.5,30.05,NW,310,0.0,0.0,76,0.00,,---,0.00,VWS V14.01,2013-03-31 15:54:00,
2013-03-31 08:59:00,51.0,43.4,30.05,ENE,70,0.0,0.0,75,0.00,,---,0.00,VWS V14.01,2013-03-31 15:59:00,
2013-03-31 09:00:00,51.1,43.5,30.05,WSW,248,0.0,0.0,75,0.00,,---,0.00,VWS V14.01,2013-03-31 16:00:00,
2013-03-31 09:04:00,51.3,43.7,30.05,ENE,73,0.0,0.0,75,0.00,,---,0.00,VWS V14.01,2013-03-31 16:04:00,
2013-03-31 09:09:00,51.7,43.7,30.05,NNE,15,0.0,0.0,74,0.00,,---,0.00,VWS V14.01,2013-03-31 16:09:00,
2013-03-31 09:14:00,52.3,43.9,30.05,NNW,333,0.0,0.0,73,0.00,,---,0.00,VWS V14.01,2013-03-31 16:14:00,
2013-03-31 09:15:00,52.4,43.7,30.05,NW,304,0.0,0.0,72,0.00,,---,0.00,VWS V14.01,2013-03-31 16:15:00,
2013-03-31 09:19:00,52.4,44.0,30.05,NW,317,0.0,0.0,73,0.00,,---,0.00,VWS V14.01,2013-03-31 16:19:00,
2013-03-31 09:24:00,53.0,43.9,30.05,WNW,296,0.0,0.0,71,0.00,,---,0.00,VWS V14.01,2013-03-31 16:24:00,
2013-03-31 09:29:00,53.4,43.9,30.05,NNW,329,0.0,0.0,70,0.00,,---,0.00,VWS V14.01,2013-03-31 16:29:00,
2013-03-31 09:34:00,53.9,44.0,30.05,NNW,332,0.0,0.0,69,0.00,,---,0.00,VWS V14.01,2013-03-31 16:34:00,
2013-03-31 09:39:00,53.7,43.8,30.05,WNW,300,0.0,0.0,69,0.00,,---,0.00,VWS V14.01,2013-03-31 16:39:00,
2013-03-31 09:44:00,53.9,43.6,30.05,NNW,327,0.0,0.0,68,0.00,,---,0.00,VWS V14.01,2013-03-31 16:44:00,
2013-03-31 09:45:00,54.1,43.8,30.05,NNW,328,0.0,0.0,68,0.00,,---,0.00,VWS V14.01,2013-03-31 16:45:00,
2013-03-31 09:49:00,54.5,44.2,30.05,NW,325,0.0,0.0,68,0.00,,---,0.00,VWS V14.01,2013-03-31 16:49:00,
2013-03-31 09:54:00,55.0,44.3,30.05,NNE,24,0.0,0.0,67,0.00,,---,0.00,VWS V14.01,2013-03-31 16:54:00,
2013-03-31 09:59:00,54.9,43.8,30.04,NNW,334,0.0,0.0,66,0.00,,---,0.00,VWS V14.01,2013-03-31 16:59:00,
2013-03-31 10:00:00,55.1,44.3,30.05,NNW,334,0.0,0.0,67,0.00,,---,0.00,VWS V14.01,2013-03-31 17:00:00,
2013-03-31 10:04:00,55.4,44.2,30.05,NNW,336,0.0,0.0,66,0.00,,---,0.00,VWS V14.01,2013-03-31 17:04:00,
2013-03-31 10:09:00,55.5,44.3,30.04,NW,312,0.0,0.0,66,0.00,,---,0.00,VWS V14.01,2013-03-31 17:09:00,
2013-03-31 10:14:00,55.7,44.5,30.04,North,5,0.0,0.0,66,0.00,,---,0.00,VWS V14.01,2013-03-31 17:14:00,
2013-03-31 10:15:00,55.9,44.7,30.04,NW,319,0.0,0.0,66,0.00,,---,0.00,VWS V14.01,2013-03-31 17:15:00,
2013-03-31 10:19:00,56.1,44.5,30.04,NNE,19,0.0,0.0,65,0.00,,---,0.00,VWS V14.01,2013-03-31 17:19:00,
2013-03-31 10:24:00,56.6,45.0,30.04,WSW,248,0.0,0.0,65,0.00,,---,0.00,VWS V14.01,2013-03-31 17:24:00,
2013-03-31 10:29:00,56.7,45.5,30.04,NNW,327,0.0,0.0,66,0.00,,---,0.00,VWS V14.01,2013-03-31 17:29:00,
2013-03-31 10:34:00,57.1,45.5,30.04,NNW,327,0.0,0.0,65,0.00,,---,0.00,VWS V14.01,2013-03-31 17:34:00,
2013-03-31 10:39:00,56.7,45.1,30.04,NNW,329,0.0,0.0,65,0.00,,---,0.00,VWS V14.01,2013-03-31 17:39:00,
2013-03-31 10:44:00,56.5,45.3,30.04,NNW,338,0.0,0.0,66,0.00,,---,0.00,VWS V14.01,2013-03-31 17:44:00,
2013-03-31 10:49:00,56.4,45.2,30.04,NNW,333,0.0,0.0,66,0.00,,---,0.00,VWS V14.01,2013-03-31 17:49:00,
2013-03-31 10:54:00,56.0,45.2,30.04,NNW,338,0.0,0.0,67,0.00,,---,0.00,VWS V14.01,2013-03-31 17:54:00,
2013-03-31 10:59:00,55.9,45.1,30.04,NNW,340,0.0,0.0,67,0.00,,---,0.00,VWS V14.01,2013-03-31 17:59:00,
2013-03-31 11:00:00,56.0,45.2,30.04,NNW,336,0.0,0.0,67,0.00,,---,0.00,VWS V14.01,2013-03-31 18:00:00,
2013-03-31 11:04:00,56.1,45.3,30.04,NNW,339,0.0,0.0,67,0.00,,---,0.00,VWS V14.01,2013-03-31 18:04:00,
2013-03-31 11:09:00,56.3,45.1,30.04,NNW,335,0.0,0.0,66,0.00,,---,0.00,VWS V14.01,2013-03-31 18:09:00,
2013-03-31 11:14:00,55.9,45.1,30.04,NNW,336,0.0,0.0,67,0.00,,---,0.00,VWS V14.01,2013-03-31 18:14:00,
2013-03-31 11:15:00,55.9,45.1,30.04,NNW,339,0.0,0.0,67,0.00,,---,0.00,VWS V14.01,2013-03-31 18:15:00,
2013-03-31 11:19:00,56.1,44.9,30.04,NW,317,0.0,0.0,66,0.00,,---,0.00,VWS V14.01,2013-03-31 18:19:00,
2013-03-31 11:24:00,56.6,44.6,30.04,NW,324,0.0,0.0,64,0.00,,---,0.00,VWS V14.01,2013-03-31 18:24:00,
2013-03-31 11:29:00,56.8,43.9,30.04,NNW,344,0.0,0.0,62,0.00,,---,0.00,VWS V14.01,2013-03-31 18:29:00,
2013-03-31 11:30:00,57.2,44.3,30.04,NNW,345,0.0,0.0,62,0.00,,---,0.00,VWS V14.01,2013-03-31 18:30:00,
2013-03-31 11:34:00,57.4,44.5,30.04,WNW,283,0.0,0.0,62,0.00,,---,0.00,VWS V14.01,2013-03-31 18:34:00,
2013-03-31 11:39:00,57.6,43.4,30.04,NNW,342,0.0,0.0,59,0.00,,---,0.00,VWS V14.01,2013-03-31 18:39:00,
2013-03-31 11:44:00,57.3,44.0,30.04,NNW,335,0.0,0.0,61,0.00,,---,0.00,VWS V14.01,2013-03-31 18:44:00,
2013-03-31 11:49:00,57.8,43.6,30.04,West,279,0.0,0.0,59,0.00,,---,0.00,VWS V14.01,2013-03-31 18:49:00,
2013-03-31 11:54:00,58.0,42.9,30.04,NNW,333,0.0,0.0,57,0.00,,---,0.00,VWS V14.01,2013-03-31 18:54:00,
2013-03-31 11:59:00,58.0,43.3,30.04,NNW,333,0.0,0.0,58,0.00,,---,0.00,VWS V14.01,2013-03-31 18:59:00,
2013-03-31 12:00:00,58.0,42.9,30.04,NW,324,0.0,0.0,57,0.00,,---,0.00,VWS V14.01,2013-03-31 19:00:00,
2013-03-31 12:04:00,57.9,42.8,30.04,NNW,338,0.0,0.0,57,0.00,,---,0.00,VWS V14.01,2013-03-31 19:04:00,
2013-03-31 12:09:00,57.7,43.0,30.04,NW,323,0.0,0.0,58,0.00,,---,0.00,VWS V14.01,2013-03-31 19:09:00,
2013-03-31 12:14:00,58.1,43.0,30.03,North,360,0.0,0.0,57,0.00,,---,0.00,VWS V14.01,2013-03-31 19:14:00,
2013-03-31 12:15:00,58.2,43.1,30.03,NW,321,0.0,0.0,57,0.00,,---,0.00,VWS V14.01,2013-03-31 19:15:00,
2013-03-31 12:19:00,58.6,43.4,30.03,NNW,328,0.0,0.0,57,0.00,,---,0.00,VWS V14.01,2013-03-31 19:19:00,
2013-03-31 12:24:00,59.3,44.1,30.03,NNW,342,0.0,0.0,57,0.00,,---,0.00,VWS V14.01,2013-03-31 19:24:00,
2013-03-31 12:29:00,58.8,44.1,30.03,NNW,346,0.0,0.0,58,0.00,,---,0.00,VWS V14.01,2013-03-31 19:29:00,
2013-03-31 12:30:00,58.9,44.6,30.03,North,351,0.0,0.0,59,0.00,,---,0.00,VWS V14.01,2013-03-31 19:30:00,
2013-03-31 12:34:00,58.9,44.2,30.03,WNW,302,0.0,0.0,58,0.00,,---,0.00,VWS V14.01,2013-03-31 19:34:00,
2013-03-31 12:39:00,59.2,44.5,30.03,NNW,340,0.0,0.0,58,0.00,,---,0.00,VWS V14.01,2013-03-31 19:39:00,
2013-03-31 12:44:00,59.4,44.2,30.03,NW,319,0.0,0.0,57,0.00,,---,0.00,VWS V14.01,2013-03-31 19:44:00,
2013-03-31 12:45:00,59.8,44.1,30.03,NNW,336,0.0,0.0,56,0.00,,---,0.00,VWS V14.01,2013-03-31 19:45:00,
2013-03-31 12:49:00,60.2,44.5,30.03,NNW,346,0.0,0.0,56,0.00,,---,0.00,VWS V14.01,2013-03-31 19:49:00,
2013-03-31 12:54:00,60.0,43.8,30.03,NW,323,0.0,0.0,55,0.00,,---,0.00,VWS V14.01,2013-03-31 19:54:00,
2013-03-31 12:59:00,59.7,43.5,30.03,NNW,342,0.0,0.0,55,0.00,,---,0.00,VWS V14.01,2013-03-31 19:59:00,
2013-03-31 13:00:00,59.8,44.1,30.03,NNW,343,0.0,0.0,56,0.00,,---,0.00,VWS V14.01,2013-03-31 20:00:00,
2013-03-31 13:04:00,59.7,44.0,30.02,NNW,334,0.0,0.0,56,0.00,,---,0.00,VWS V14.01,2013-03-31 20:04:00,
2013-03-31 13:09:00,60.1,43.9,30.02,NW,326,0.0,0.0,55,0.00,,---,0.00,VWS V14.01,2013-03-31 20:09:00,
2013-03-31 13:14:00,60.2,43.5,30.02,NNW,342,0.0,0.0,54,0.00,,---,0.00,VWS V14.01,2013-03-31 20:14:00,
2013-03-31 13:15:00,60.2,43.5,30.02,North,355,0.0,0.0,54,0.00,,---,0.00,VWS V14.01,2013-03-31 20:15:00,
2013-03-31 13:19:00,60.3,44.1,30.02,NNW,342,0.0,0.0,55,0.00,,---,0.00,VWS V14.01,2013-03-31 20:19:00,
2013-03-31 13:24:00,60.8,44.1,30.02,NW,317,0.0,0.0,54,0.00,,---,0.00,VWS V14.01,2013-03-31 20:24:00,
2013-03-31 13:29:00,61.3,45.0,30.02,NNW,344,0.0,0.0,55,0.00,,---,0.00,VWS V14.01,2013-03-31 20:29:00,
2013-03-31 13:30:00,61.3,45.0,30.01,NNW,340,0.0,0.0,55,0.00,,---,0.00,VWS V14.01,2013-03-31 20:30:00,
2013-03-31 13:34:00,61.6,44.8,30.01,NNW,338,0.0,0.0,54,0.00,,---,0.00,VWS V14.01,2013-03-31 20:34:00,
2013-03-31 13:39:00,62.1,45.3,30.01,NNW,347,0.0,0.0,54,0.00,,---,0.00,VWS V14.01,2013-03-31 20:39:00,
2013-03-31 13:44:00,62.4,45.5,30.01,North,349,0.0,0.0,54,0.00,,---,0.00,VWS V14.01,2013-03-31 20:44:00,
2013-03-31 13:45:00,62.3,45.9,30.01,NNW,331,0.0,0.0,55,0.00,,---,0.00,VWS V14.01,2013-03-31 20:45:00,
2013-03-31 13:49:00,62.2,45.4,30.01,WNW,293,0.0,0.0,54,0.00,,---,0.00,VWS V14.01,2013-03-31 20:49:00,
2013-03-31 13:54:00,62.6,45.7,30.01,North,351,0.0,0.0,54,0.00,,---,0.00,VWS V14.01,2013-03-31 20:54:00,
2013-03-31 13:59:00,62.5,45.2,30.00,North,350,0.0,0.0,53,0.00,,---,0.00,VWS V14.01,2013-03-31 20:59:00,
2013-03-31 14:00:00,62.2,43.9,30.00,NNW,337,0.0,0.0,51,0.00,,---,0.00,VWS V14.01,2013-03-31 21:00:00,
2013-03-31 14:04:00,62.2,44.4,30.00,NNW,341,0.0,0.0,52,0.00,,---,0.00,VWS V14.01,2013-03-31 21:04:00,
2013-03-31 14:09:00,62.7,45.3,30.00,NNW,335,0.0,0.0,53,0.00,,---,0.00,VWS V14.01,2013-03-31 21:09:00,
2013-03-31 14:14:00,62.9,45.0,30.00,North,11,0.0,0.0,52,0.00,,---,0.00,VWS V14.01,2013-03-31 21:14:00,
2013-03-31 14:15:00,63.2,45.8,30.00,NNW,348,0.0,0.0,53,0.00,,---,0.00,VWS V14.01,2013-03-31 21:15:00,
2013-03-31 14:19:00,63.1,45.2,30.00,NW,312,0.0,0.0,52,0.00,,---,0.00,VWS V14.01,2013-03-31 21:19:00,
2013-03-31 14:24:00,63.2,45.8,30.00,North,355,0.0,0.0,53,0.00,,---,0.00,VWS V14.01,2013-03-31 21:24:00,
2013-03-31 14:29:00,63.3,45.4,29.99,NNW,338,0.0,0.0,52,0.00,,---,0.00,VWS V14.01,2013-03-31 21:29:00,
2013-03-31 14:30:00,63.2,45.3,29.99,NNW,331,0.0,0.0,52,0.00,,---,0.00,VWS V14.01,2013-03-31 21:30:00,
2013-03-31 14:34:00,63.5,46.1,29.99,NNW,343,0.0,0.0,53,0.00,,---,0.00,VWS V14.01,2013-03-31 21:34:00,
2013-03-31 14:39:00,63.8,45.9,29.99,WNW,285,0.0,0.0,52,0.00,,---,0.00,VWS V14.01,2013-03-31 21:39:00,
2013-03-31 14:44:00,64.5,46.0,29.99,North,360,0.0,0.0,51,0.00,,---,0.00,VWS V14.01,2013-03-31 21:44:00,
2013-03-31 14:45:00,64.7,46.2,29.99,West,273,0.0,0.0,51,0.00,,---,0.00,VWS V14.01,2013-03-31 21:45:00,
2013-03-31 14:49:00,65.0,46.5,29.98,NNW,331,0.0,0.0,51,0.00,,---,0.00,VWS V14.01,2013-03-31 21:49:00,
2013-03-31 14:54:00,64.8,46.3,29.98,NW,315,0.0,0.0,51,0.00,,---,0.00,VWS V14.01,2013-03-31 21:54:00,
2013-03-31 14:59:00,64.5,45.5,29.98,NNW,335,0.0,0.0,50,0.00,,---,0.00,VWS V14.01,2013-03-31 21:59:00,
2013-03-31 15:00:00,64.2,45.7,29.98,NW,319,0.0,0.0,51,0.00,,---,0.00,VWS V14.01,2013-03-31 22:00:00,
2013-03-31 15:04:00,64.4,45.9,29.98,WNW,291,0.0,0.0,51,0.00,,---,0.00,VWS V14.01,2013-03-31 22:04:00,
2013-03-31 15:09:00,65.0,45.4,29.98,NNW,344,0.0,0.0,49,0.00,,---,0.00,VWS V14.01,2013-03-31 22:09:00,
2013-03-31 15:14:00,64.8,45.7,29.98,NW,325,0.0,0.0,50,0.00,,---,0.00,VWS V14.01,2013-03-31 22:14:00,
2013-03-31 15:15:00,64.7,45.7,29.97,NNW,341,0.0,0.0,50,0.00,,---,0.00,VWS V14.01,2013-03-31 22:15:00,
2013-03-31 15:19:00,64.6,45.0,29.97,NNW,338,0.0,0.0,49,0.00,,---,0.00,VWS V14.01,2013-03-31 22:19:00,
2013-03-31 15:24:00,65.1,44.9,29.97,NW,305,0.0,0.0,48,0.00,,---,0.00,VWS V14.01,2013-03-31 22:24:00,
2013-03-31 15:29:00,65.6,44.8,29.97,NNW,337,0.0,0.0,47,0.00,,---,0.00,VWS V14.01,2013-03-31 22:29:00,
2013-03-31 15:30:00,65.1,43.8,29.97,NNW,337,0.0,0.0,46,0.00,,---,0.00,VWS V14.01,2013-03-31 22:30:00,
2013-03-31 15:34:00,64.8,43.6,29.97,NW,319,0.0,0.0,46,0.00,,---,0.00,VWS V14.01,2013-03-31 22:34:00,
2013-03-31 15:39:00,64.8,43.6,29.97,NNW,331,0.0,0.0,46,0.00,,---,0.00,VWS V14.01,2013-03-31 22:39:00,
2013-03-31 15:44:00,65.4,44.1,29.96,NW,317,0.0,0.0,46,0.00,,---,0.00,VWS V14.01,2013-03-31 22:44:00,
2013-03-31 15:45:00,65.3,44.6,29.96,NW,316,0.0,0.0,47,0.00,,---,0.00,VWS V14.01,2013-03-31 22:45:00,
2013-03-31 15:49:00,65.4,44.7,29.96,WNW,302,0.0,0.0,47,0.00,,---,0.00,VWS V14.01,2013-03-31 22:49:00,
2013-03-31 15:54:00,65.6,44.8,29.96,NW,317,0.0,0.0,47,0.00,,---,0.00,VWS V14.01,2013-03-31 22:54:00,
2013-03-31 15:59:00,66.4,45.6,29.96,NNW,335,0.0,0.0,47,0.00,,---,0.00,VWS V14.01,2013-03-31 22:59:00,
2013-03-31 16:04:00,66.9,45.5,29.96,NW,322,0.0,0.0,46,0.00,,---,0.00,VWS V14.01,2013-03-31 23:04:00,
2013-03-31 16:09:00,66.5,45.7,29.95,NNW,337,0.0,0.0,47,0.00,,---,0.00,VWS V14.01,2013-03-31 23:09:00,
2013-03-31 16:14:00,66.9,46.0,29.95,WNW,296,0.0,0.0,47,0.00,,---,0.00,VWS V14.01,2013-03-31 23:14:00,
2013-03-31 16:15:00,67.0,45.6,29.95,NNW,341,0.0,0.0,46,0.00,,---,0.00,VWS V14.01,2013-03-31 23:15:00,
2013-03-31 16:19:00,66.3,44.9,29.95,NNW,337,0.0,0.0,46,0.00,,---,0.00,VWS V14.01,2013-03-31 23:19:00,
2013-03-31 16:24:00,65.6,44.3,29.95,NW,309,0.0,0.0,46,0.00,,---,0.00,VWS V14.01,2013-03-31 23:24:00,
2013-03-31 16:29:00,65.0,44.3,29.95,NW,319,0.0,0.0,47,0.00,,---,0.00,VWS V14.01,2013-03-31 23:29:00,
2013-03-31 16:30:00,65.0,44.8,29.95,North,355,0.0,0.0,48,0.00,,---,0.00,VWS V14.01,2013-03-31 23:30:00,
2013-03-31 16:34:00,65.0,44.8,29.94,NNW,347,0.0,0.0,48,0.00,,---,0.00,VWS V14.01,2013-03-31 23:34:00,
2013-03-31 16:39:00,65.0,44.8,29.94,NNW,344,0.0,0.0,48,0.00,,---,0.00,VWS V14.01,2013-03-31 23:39:00,
2013-03-31 16:44:00,64.8,44.1,29.94,NNW,348,0.0,0.0,47,0.00,,---,0.00,VWS V14.01,2013-03-31 23:44:00,
2013-03-31 16:45:00,64.8,44.7,29.94,NW,326,0.0,0.0,48,0.00,,---,0.00,VWS V14.01,2013-03-31 23:45:00,
2013-03-31 16:49:00,65.1,45.5,29.94,NNW,336,0.0,0.0,49,0.00,,---,0.00,VWS V14.01,2013-03-31 23:49:00,
2013-03-31 16:54:00,65.3,45.7,29.94,NNW,334,0.0,0.0,49,0.00,,---,0.00,VWS V14.01,2013-03-31 23:54:00,
2013-03-31 16:59:00,65.8,46.1,29.94,North,5,0.0,0.0,49,0.00,,---,0.00,VWS V14.01,2013-03-31 23:59:00,
2013-03-31 17:00:00,66.1,45.3,29.94,North,9,0.0,0.0,47,0.00,,---,0.00,VWS V14.01,2013-04-01 00:00:00,
2013-03-31 17:04:00,66.0,45.8,29.94,NNW,339,0.0,0.0,48,0.00,,---,0.00,VWS V14.01,2013-04-01 00:04:00,
2013-03-31 17:09:00,66.3,45.5,29.94,NNW,344,0.0,0.0,47,0.00,,---,0.00,VWS V14.01,2013-04-01 00:09:00,
2013-03-31 17:14:00,65.9,45.7,29.94,North,355,0.0,0.0,48,0.00,,---,0.00,VWS V14.01,2013-04-01 00:14:00,
2013-03-31 17:15:00,65.8,45.0,29.94,NNW,333,0.0,0.0,47,0.00,,---,0.00,VWS V14.01,2013-04-01 00:15:00,
2013-03-31 17:19:00,65.7,46.0,29.94,NNW,336,0.0,0.0,49,0.00,,---,0.00,VWS V14.01,2013-04-01 00:19:00,
2013-03-31 17:24:00,65.3,45.1,29.93,NNW,340,0.0,0.0,48,0.00,,---,0.00,VWS V14.01,2013-04-01 00:24:00,
2013-03-31 17:29:00,65.1,45.5,29.93,NNW,342,0.0,0.0,49,0.00,,---,0.00,VWS V14.01,2013-04-01 00:29:00,
2013-03-31 17:30:00,65.2,45.0,29.93,NNW,348,0.0,0.0,48,0.00,,---,0.00,VWS V14.01,2013-04-01 00:30:00,
2013-03-31 17:34:00,65.4,45.2,29.93,NNE,26,0.0,0.0,48,0.00,,---,0.00,VWS V14.01,2013-04-01 00:34:00,
2013-03-31 17:39:00,65.3,44.6,29.93,NNW,348,0.0,0.0,47,0.00,,---,0.00,VWS V14.01,2013-04-01 00:39:00,
2013-03-31 17:44:00,65.4,44.7,29.93,NNW,336,0.0,0.0,47,0.00,,---,0.00,VWS V14.01,2013-04-01 00:44:00,
2013-03-31 17:45:00,65.4,44.7,29.93,NNW,328,0.0,0.0,47,0.00,,---,0.00,VWS V14.01,2013-04-01 00:45:00,
2013-03-31 17:49:00,65.1,44.4,29.93,NNW,345,0.0,0.0,47,0.00,,---,0.00,VWS V14.01,2013-04-01 00:49:00,
2013-03-31 17:54:00,65.3,45.1,29.93,NW,309,0.0,0.0,48,0.00,,---,0.00,VWS V14.01,2013-04-01 00:54:00,
2013-03-31 17:59:00,66.0,45.2,29.93,NNE,18,0.0,0.0,47,0.00,,---,0.00,VWS V14.01,2013-04-01 00:59:00,
2013-03-31 18:00:00,66.1,45.3,29.93,NNW,346,0.0,0.0,47,0.00,,---,0.00,VWS V14.01,2013-04-01 01:00:00,
2013-03-31 18:04:00,66.1,45.3,29.93,North,5,0.0,0.0,47,0.00,,---,0.00,VWS V14.01,2013-04-01 01:04:00,
2013-03-31 18:09:00,66.2,46.0,29.93,NNW,339,0.0,0.0,48,0.00,,---,0.00,VWS V14.01,2013-04-01 01:09:00,
2013-03-31 18:14:00,66.7,45.8,29.93,West,277,0.0,0.0,47,0.00,,---,0.00,VWS V14.01,2013-04-01 01:14:00,
2013-03-31 18:15:00,66.5,45.7,29.93,North,10,0.0,0.0,47,0.00,,---,0.00,VWS V14.01,2013-04-01 01:15:00,
2013-03-31 18:19:00,66.0,45.8,29.93,North,355,0.0,0.0,48,0.00,,---,0.00,VWS V14.01,2013-04-01 01:19:00,
2013-03-31 18:24:00,65.4,45.8,29.93,SW,235,0.0,0.0,49,0.00,,---,0.00,VWS V14.01,2013-04-01 01:24:00,
2013-03-31 18:29:00,65.6,45.4,29.93,North,10,0.0,0.0,48,0.00,,---,0.00,VWS V14.01,2013-04-01 01:29:00,
2013-03-31 18:30:00,65.5,45.8,29.93,NNW,343,0.0,0.0,49,0.00,,---,0.00,VWS V14.01,2013-04-01 01:30:00,
2013-03-31 18:34:00,65.6,46.0,29.93,NNW,339,0.0,0.0,49,0.00,,---,0.00,VWS V14.01,2013-04-01 01:34:00,
2013-03-31 18:39:00,65.8,45.6,29.93,NW,316,0.0,0.0,48,0.00,,---,0.00,VWS V14.01,2013-04-01 01:39:00,
2013-03-31 18:44:00,65.8,46.1,29.93,West,266,0.0,0.0,49,0.00,,---,0.00,VWS V14.01,2013-04-01 01:44:00,
2013-03-31 18:45:00,65.9,45.7,29.93,WNW,292,0.0,0.0,48,0.00,,---,0.00,VWS V14.01,2013-04-01 01:45:00,
2013-03-31 18:49:00,65.9,45.7,29.93,SW,231,0.0,0.0,48,0.00,,---,0.00,VWS V14.01,2013-04-01 01:49:00,
2013-03-31 18:54:00,65.8,45.6,29.93,North,355,0.0,0.0,48,0.00,,---,0.00,VWS V14.01,2013-04-01 01:54:00,
2013-03-31 18:59:00,65.2,45.6,29.93,NNE,25,0.0,0.0,49,0.00,,---,0.00,VWS V14.01,2013-04-01 01:59:00,
2013-03-31 19:00:00,64.8,45.2,29.93,North,9,0.0,0.0,49,0.00,,---,0.00,VWS V14.01,2013-04-01 02:00:00,
2013-03-31 19:04:00,64.5,45.5,29.93,WNW,284,0.0,0.0,50,0.00,,---,0.00,VWS V14.01,2013-04-01 02:04:00,
2013-03-31 19:09:00,64.4,45.4,29.93,WSW,246,0.0,0.0,50,0.00,,---,0.00,VWS V14.01,2013-04-01 02:09:00,
2013-03-31 19:14:00,64.3,44.8,29.93,NW,311,0.0,0.0,49,0.00,,---,0.00,VWS V14.01,2013-04-01 02:14:00,
2013-03-31 19:15:00,64.2,44.1,29.93,NNE,20,0.0,0.0,48,0.00,,---,0.00,VWS V14.01,2013-04-01 02:15:00,
2013-03-31 19:19:00,63.8,43.2,29.92,WNW,296,0.0,0.0,47,0.00,,---,0.00,VWS V14.01,2013-04-01 02:19:00,
2013-03-31 19:24:00,63.3,42.8,29.93,NE,47,0.0,0.0,47,0.00,,---,0.00,VWS V14.01,2013-04-01 02:24:00,
2013-03-31 19:29:00,62.9,42.9,29.92,NNE,13,0.0,0.0,48,0.00,,---,0.00,VWS V14.01,2013-04-01 02:29:00,
2013-03-31 19:30:00,62.8,42.8,29.92,North,355,0.0,0.0,48,0.00,,---,0.00,VWS V14.01,2013-04-01 02:30:00,
2013-03-31 19:34:00,62.6,42.7,29.92,North,5,0.0,0.0,48,0.00,,---,0.00,VWS V14.01,2013-04-01 02:34:00,
2013-03-31 19:39:00,62.3,42.9,29.92,NNE,22,0.0,0.0,49,0.00,,---,0.00,VWS V14.01,2013-04-01 02:39:00,
2013-03-31 19:44:00,62.1,43.3,29.92,NNE,17,0.0,0.0,50,0.00,,---,0.00,VWS V14.01,2013-04-01 02:44:00,
2013-03-31 19:45:00,62.0,43.2,29.92,WNW,288,0.0,0.0,50,0.00,,---,0.00,VWS V14.01,2013-04-01 02:45:00,
2013-03-31 19:49:00,61.9,43.1,29.93,NNE,27,0.0,0.0,50,0.00,,---,0.00,VWS V14.01,2013-04-01 02:49:00,
2013-03-31 19:54:00,61.7,43.4,29.93,NW,315,0.0,0.0,51,0.00,,---,0.00,VWS V14.01,2013-04-01 02:54:00,
2013-03-31 19:59:00,61.6,43.3,29.93,SSW,205,0.0,0.0,51,0.00,,---,0.00,VWS V14.01,2013-04-01 02:59:00,
2013-03-31 20:00:00,61.6,43.3,29.93,WNW,295,0.0,0.0,51,0.00,,---,0.00,VWS V14.01,2013-04-01 03:00:00,
2013-03-31 20:04:00,61.6,43.3,29.93,NE,46,0.0,0.0,51,0.00,,---,0.00,VWS V14.01,2013-04-01 03:04:00,
2013-03-31 20:09:00,61.5,43.7,29.93,ENE,66,0.0,0.0,52,0.00,,---,0.00,VWS V14.01,2013-04-01 03:09:00,
2013-03-31 20:14:00,61.4,43.6,29.93,SSE,167,0.0,0.0,52,0.00,,---,0.00,VWS V14.01,2013-04-01 03:14:00,
2013-03-31 20:15:00,61.4,43.6,29.93,WNW,289,0.0,0.0,52,0.00,,---,0.00,VWS V14.01,2013-04-01 03:15:00,
2013-03-31 20:19:00,61.3,44.0,29.93,ENE,77,0.0,0.0,53,0.00,,---,0.00,VWS V14.01,2013-04-01 03:19:00,
2013-03-31 20:24:00,61.2,44.0,29.93,East,79,0.0,0.0,53,0.00,,---,0.00,VWS V14.01,2013-04-01 03:24:00,
2013-03-31 20:29:00,61.1,43.9,29.93,East,95,0.0,0.0,53,0.00,,---,0.00,VWS V14.01,2013-04-01 03:29:00,
2013-03-31 20:30:00,61.1,43.9,29.93,East,95,0.0,0.0,53,0.00,,---,0.00,VWS V14.01,2013-04-01 03:30:00,
2013-03-31 20:34:00,61.0,43.8,29.93,East,95,0.0,0.0,53,0.00,,---,0.00,VWS V14.01,2013-04-01 03:34:00,
2013-03-31 20:39:00,60.9,43.7,29.93,East,95,0.0,0.0,53,0.00,,---,0.00,VWS V14.01,2013-04-01 03:39:00,
2013-03-31 20:44:00,60.8,44.1,29.93,East,94,0.0,0.0,54,0.00,,---,0.00,VWS V14.01,2013-04-01 03:44:00,
2013-03-31 20:45:00,60.7,43.5,29.93,East,80,0.0,0.0,53,0.00,,---,0.00,VWS V14.01,2013-04-01 03:45:00,
2013-03-31 20:49:00,60.7,43.5,29.93,North,9,0.0,0.0,53,0.00,,---,0.00,VWS V14.01,2013-04-01 03:49:00,
2013-03-31 20:54:00,60.6,43.9,29.94,North,9,0.0,0.0,54,0.00,,---,0.00,VWS V14.01,2013-04-01 03:54:00,
2013-03-31 20:59:00,60.5,43.8,29.94,North,9,0.0,0.0,54,0.00,,---,0.00,VWS V14.01,2013-04-01 03:59:00,
2013-03-31 21:00:00,60.5,43.8,29.94,North,9,0.0,0.0,54,0.00,,---,0.00,VWS V14.01,2013-04-01 04:00:00,
2013-03-31 21:05:00,60.3,43.6,29.94,North,9,0.0,0.0,54,0.00,,---,0.00,VWS V14.01,2013-04-01 04:05:00,
2013-03-31 21:10:00,60.2,43.5,29.94,North,9,0.0,0.0,54,0.00,,---,0.00,VWS V14.01,2013-04-01 04:10:00,
2013-03-31 21:12:00,60.2,43.0,29.94,North,9,0.0,0.0,53,0.00,,---,0.00,VWS V14.01,2013-04-01 04:12:00,
2013-03-31 21:15:00,60.1,42.9,29.94,North,9,0.0,0.0,53,0.00,,---,0.00,VWS V14.01,2013-04-01 04:15:00,
2013-03-31 21:17:00,60.1,42.9,29.94,North,9,0.0,0.0,53,0.00,,---,0.00,VWS V14.01,2013-04-01 04:17:00,
2013-03-31 21:22:00,60.0,42.3,29.94,North,9,0.0,0.0,52,0.00,,---,0.00,VWS V14.01,2013-04-01 04:22:00,
2013-03-31 21:27:00,59.9,42.2,29.95,North,9,0.0,0.0,52,0.00,,---,0.00,VWS V14.01,2013-04-01 04:27:00,
2013-03-31 21:30:00,59.8,42.2,29.95,North,9,0.0,0.0,52,0.00,,---,0.00,VWS V14.01,2013-04-01 04:30:00,
2013-03-31 21:32:00,59.8,42.2,29.95,North,5,0.0,0.0,52,0.00,,---,0.00,VWS V14.01,2013-04-01 04:32:00,
2013-03-31 21:37:00,59.6,42.0,29.95,North,9,0.0,0.0,52,0.00,,---,0.00,VWS V14.01,2013-04-01 04:37:00,
2013-03-31 21:42:00,59.4,41.8,29.95,North,5,0.0,0.0,52,0.00,,---,0.00,VWS V14.01,2013-04-01 04:42:00,
2013-03-31 21:45:00,59.3,41.7,29.95,North,11,0.0,0.0,52,0.00,,---,0.00,VWS V14.01,2013-04-01 04:45:00,
2013-03-31 21:47:00,59.3,42.2,29.95,North,11,0.0,0.0,53,0.00,,---,0.00,VWS V14.01,2013-04-01 04:47:00,
2013-03-31 21:52:00,59.2,42.1,29.95,North,10,0.0,0.0,53,0.00,,---,0.00,VWS V14.01,2013-04-01 04:52:00,
2013-03-31 21:57:00,59.0,41.9,29.96,North,10,0.0,0.0,53,0.00,,---,0.00,VWS V14.01,2013-04-01 04:57:00,
2013-03-31 22:00:00,58.9,41.8,29.96,North,10,0.0,0.0,53,0.00,,---,0.00,VWS V14.01,2013-04-01 05:00:00,
2013-03-31 22:02:00,58.9,41.8,29.96,North,10,0.0,0.0,53,0.00,,---,0.00,VWS V14.01,2013-04-01 05:02:00,
2013-03-31 22:07:00,58.8,41.7,29.96,North,10,0.0,0.0,53,0.00,,---,0.00,VWS V14.01,2013-04-01 05:07:00,
2013-03-31 22:12:00,58.6,42.0,29.96,North,10,0.0,0.0,54,0.00,,---,0.00,VWS V14.01,2013-04-01 05:12:00,
2013-03-31 22:15:00,58.5,42.4,29.96,North,10,0.0,0.0,55,0.00,,---,0.00,VWS V14.01,2013-04-01 05:15:00,
2013-03-31 22:17:00,58.5,42.4,29.96,North,10,0.0,0.0,55,0.00,,---,0.00,VWS V14.01,2013-04-01 05:17:00,
2013-03-31 22:22:00,58.4,42.3,29.96,North,10,0.0,0.0,55,0.00,,---,0.00,VWS V14.01,2013-04-01 05:22:00,
2013-03-31 22:27:00,58.3,42.2,29.96,North,10,0.0,0.0,55,0.00,,---,0.00,VWS V14.01,2013-04-01 05:27:00,
2013-03-31 22:30:00,58.2,42.6,29.96,North,10,0.0,0.0,56,0.00,,---,0.00,VWS V14.01,2013-04-01 05:30:00,
2013-03-31 22:32:00,58.2,42.6,29.96,North,10,0.0,0.0,56,0.00,,---,0.00,VWS V14.01,2013-04-01 05:32:00,
2013-03-31 22:37:00,58.0,42.4,29.96,North,10,0.0,0.0,56,0.00,,---,0.00,VWS V14.01,2013-04-01 05:37:00,
2013-03-31 22:42:00,57.9,42.3,29.96,North,10,0.0,0.0,56,0.00,,---,0.00,VWS V14.01,2013-04-01 05:42:00,
2013-03-31 22:45:00,57.9,42.3,29.97,North,10,0.0,0.0,56,0.00,,---,0.00,VWS V14.01,2013-04-01 05:45:00,
2013-03-31 22:47:00,57.9,42.3,29.96,North,10,0.0,0.0,56,0.00,,---,0.00,VWS V14.01,2013-04-01 05:47:00,
2013-03-31 22:52:00,57.7,44.8,29.97,North,10,0.0,0.0,62,0.00,,---,0.00,VWS V14.01,2013-04-01 05:52:00,
2013-03-31 22:57:00,57.1,44.6,29.97,North,10,0.0,0.0,63,0.00,,---,0.00,VWS V14.01,2013-04-01 05:57:00,
2013-03-31 23:00:00,56.8,43.9,29.96,North,10,0.0,0.0,62,0.00,,---,0.00,VWS V14.01,2013-04-01 06:00:00,
2013-03-31 23:02:00,56.7,44.3,29.96,North,10,0.0,0.0,63,0.00,,---,0.00,VWS V14.01,2013-04-01 06:02:00,
2013-03-31 23:07:00,56.5,44.5,29.97,North,350,0.0,0.0,64,0.00,,---,0.00,VWS V14.01,2013-04-01 06:07:00,
2013-03-31 23:12:00,56.1,44.5,29.97,WSW,257,0.0,0.0,65,0.00,,---,0.00,VWS V14.01,2013-04-01 06:12:00,
2013-03-31 23:15:00,55.4,45.0,29.97,WSW,254,0.0,0.0,68,0.00,,---,0.00,VWS V14.01,2013-04-01 06:15:00,
2013-03-31 23:17:00,54.9,44.5,29.97,WSW,254,0.0,0.0,68,0.00,,---,0.00,VWS V14.01,2013-04-01 06:17:00,
2013-03-31 23:22:00,53.9,44.7,29.97,West,263,0.0,0.0,71,0.00,,---,0.00,VWS V14.01,2013-04-01 06:22:00,
2013-03-31 23:27:00,53.8,44.6,29.97,West,269,0.0,0.0,71,0.00,,---,0.00,VWS V14.01,2013-04-01 06:27:00,
2013-03-31 23:30:00,53.9,44.7,29.97,West,271,0.0,0.0,71,0.00,,---,0.00,VWS V14.01,2013-04-01 06:30:00,
2013-03-31 23:33:00,53.9,44.7,29.97,West,280,0.0,0.0,71,0.00,,---,0.00,VWS V14.01,2013-04-01 06:33:00,
2013-03-31 23:38:00,54.1,44.5,29.98,West,268,0.0,0.0,70,0.00,,---,0.00,VWS V14.01,2013-04-01 06:38:00,
2013-03-31 23:43:00,54.2,44.6,29.98,West,268,0.0,0.0,70,0.00,,---,0.00,VWS V14.01,2013-04-01 06:43:00,
2013-03-31 23:45:00,54.3,44.7,29.98,West,265,0.0,0.0,70,0.00,,---,0.00,VWS V14.01,2013-04-01 06:45:00,
2013-03-31 23:48:00,54.2,44.6,29.98,West,265,0.0,0.0,70,0.00,,---,0.00,VWS V14.01,2013-04-01 06:48:00,
2013-03-31 23:53:00,53.7,44.9,29.98,West,265,0.0,0.0,72,0.00,,---,0.00,VWS V14.01,2013-04-01 06:53:00,
2013-03-31 23:58:00,53.5,44.7,29.98,West,264,0.0,0.0,72,0.00,,---,0.00,VWS V14.01,2013-04-01 06:58:00,